| time (UTC) | temp C | wind direction | speed KPH | gust KPH | rain 1hr cm | rain 24hr cm | rain mn cm | humidity % | barometer mb |
| 20260507205834 | 21 | 299 | 1.6 | 3.2 | 0.00 | 0.00 | 0.00 | 39 | 1012.2 |
| 20260507205332 | 21 | 192 | 0.0 | 1.6 | 0.00 | 0.00 | 0.00 | 39 | 1012.1 |
| 20260507204827 | 21 | 265 | 1.6 | 3.2 | 0.00 | 0.00 | 0.00 | 40 | 1012.2 |
| 20260507204325 | 21 | 219 | 1.6 | 3.2 | 0.00 | 0.00 | 0.00 | 39 | 1012.3 |
| 20260507203823 | 21 | 340 | 0.0 | 1.6 | 0.00 | 0.00 | 0.00 | 39 | 1012.6 |
| 20260507203321 | 21 | 332 | 1.6 | 3.2 | 0.00 | 0.00 | 0.00 | 38 | 1012.5 |
| 20260507202816 | 21 | 309 | 4.8 | 4.8 | 0.00 | 0.00 | 0.00 | 39 | 1012.9 |
| 20260507202313 | 21 | 178 | 6.4 | 6.4 | 0.00 | 0.00 | 0.00 | 40 | 1012.7 |
| 20260507201808 | 21 | 84 | 3.2 | 4.8 | 0.00 | 0.00 | 0.00 | 39 | 1012.7 |
| 20260507201304 | 21 | 256 | 1.6 | 3.2 | 0.00 | 0.00 | 0.00 | 39 | 1013.0 |
| 20260507200801 | 20 | 315 | 1.6 | 3.2 | 0.00 | 0.00 | 0.00 | 41 | 1012.9 |
| 20260507200257 | 20 | 0 | 3.2 | 4.8 | 0.00 | 0.00 | 0.00 | 40 | 1013.1 |
| 20260507195753 | 21 | 73 | 3.2 | 9.7 | 0.00 | 0.00 | 0.00 | 41 | 1013.3 |
| 20260507195250 | 20 | 49 | 3.2 | 3.2 | 0.00 | 0.00 | 0.00 | 42 | 1013.3 |
| 20260507194748 | 20 | 347 | 1.6 | 1.6 | 0.00 | 0.00 | 0.00 | 42 | 1013.4 |
| 20260507194244 | 20 | 354 | 1.6 | 1.6 | 0.00 | 0.00 | 0.00 | 42 | 1013.6 |
| 20260507193740 | 20 | 250 | 3.2 | 3.2 | 0.00 | 0.00 | 0.00 | 42 | 1013.5 |
| 20260507193237 | 21 | 194 | 6.4 | 9.7 | 0.00 | 0.00 | 0.00 | 42 | 1013.4 |
| 20260507192733 | 20 | 46 | 1.6 | 1.6 | 0.00 | 0.00 | 0.00 | 41 | 1013.7 |
| 20260507192230 | 20 | 144 | 3.2 | 6.4 | 0.00 | 0.00 | 0.00 | 41 | 1013.7 |
| 20260507191726 | 20 | 112 | 4.8 | 6.4 | 0.00 | 0.00 | 0.00 | 43 | 1013.6 |
| 20260507191223 | 20 | 282 | 1.6 | 1.6 | 0.00 | 0.00 | 0.00 | 42 | 1013.7 |
| 20260507190720 | 20 | 12 | 1.6 | 1.6 | 0.00 | 0.00 | 0.00 | 44 | 1013.7 |
| 20260507190219 | 20 | 71 | 0.0 | 1.6 | 0.00 | 0.00 | 0.00 | 44 | 1013.8 |
| 20260507185717 | 20 | 30 | 3.2 | 4.8 | 0.00 | 0.00 | 0.00 | 43 | 1013.8 |
| 20260507185213 | 20 | 280 | 1.6 | 3.2 | 0.00 | 0.00 | 0.00 | 43 | 1013.9 |
| 20260507184711 | 20 | 326 | 3.2 | 6.4 | 0.00 | 0.00 | 0.00 | 43 | 1014.0 |
| 20260507184209 | 19 | 116 | 9.7 | 14.5 | 0.00 | 0.00 | 0.00 | 44 | 1014.2 |
| 20260507183705 | 19 | 339 | 1.6 | 1.6 | 0.00 | 0.00 | 0.00 | 44 | 1014.2 |
| 20260507183202 | 19 | 262 | 1.6 | 3.2 | 0.00 | 0.00 | 0.00 | 45 | 1014.3 |
| 20260507182659 | 18 | 287 | 1.6 | 1.6 | 0.00 | 0.00 | 0.00 | 47 | 1014.4 |
| 20260507182154 | 19 | 162 | 1.6 | 3.2 | 0.00 | 0.00 | 0.00 | 45 | 1014.5 |
| 20260507181651 | 18 | 0 | 4.8 | 4.8 | 0.00 | 0.00 | 0.00 | 45 | 1014.6 |
| 20260507181148 | 18 | 203 | 3.2 | 4.8 | 0.00 | 0.00 | 0.00 | 46 | 1014.6 |
| 20260507180644 | 18 | 297 | 1.6 | 3.2 | 0.00 | 0.00 | 0.00 | 45 | 1014.5 |
| 20260507180142 | 19 | 306 | 3.2 | 3.2 | 0.00 | 0.00 | 0.00 | 44 | 1015.0 |
| 20260507175637 | 18 | 277 | 1.6 | 3.2 | 0.00 | 0.00 | 0.00 | 48 | 1014.7 |
| 20260507175135 | 18 | 1 | 3.2 | 6.4 | 0.00 | 0.00 | 0.00 | 45 | 1014.8 |
| 20260507174631 | 19 | 252 | 6.4 | 9.7 | 0.00 | 0.00 | 0.00 | 44 | 1015.0 |
| 20260507174130 | 18 | 151 | 1.6 | 4.8 | 0.00 | 0.00 | 0.00 | 46 | 1015.1 |
| 20260507173627 | 19 | 207 | 4.8 | 6.4 | 0.00 | 0.00 | 0.00 | 44 | 1015.4 |
| 20260507173124 | 18 | 341 | 3.2 | 3.2 | 0.00 | 0.00 | 0.00 | 45 | 1015.3 |
| 20260507172620 | 18 | 246 | 4.8 | 6.4 | 0.00 | 0.00 | 0.00 | 45 | 1015.2 |
| 20260507172117 | 18 | 33 | 0.0 | 1.6 | 0.00 | 0.00 | 0.00 | 46 | 1015.2 |
| 20260507171612 | 18 | 315 | 3.2 | 3.2 | 0.00 | 0.00 | 0.00 | 47 | 1015.4 |
| 20260507171109 | 19 | 291 | 1.6 | 3.2 | 0.00 | 0.00 | 0.00 | 45 | 1015.5 |
| 20260507170606 | 18 | 23 | 1.6 | 1.6 | 0.00 | 0.00 | 0.00 | 48 | 1015.5 |
| 20260507170103 | 18 | 182 | 1.6 | 1.6 | 0.00 | 0.00 | 0.00 | 45 | 1015.5 |
| 20260507165559 | 18 | 324 | 0.0 | 1.6 | 0.00 | 0.00 | 0.00 | 46 | 1015.8 |
| 20260507165055 | 18 | 245 | 3.2 | 3.2 | 0.00 | 0.00 | 0.00 | 47 | 1015.7 |
| 20260507164551 | 17 | 119 | 1.6 | 3.2 | 0.00 | 0.00 | 0.00 | 50 | 1015.7 |
| 20260507164048 | 17 | 190 | 1.6 | 3.2 | 0.00 | 0.00 | 0.00 | 48 | 1015.8 |
| 20260507163546 | 18 | 99 | 3.2 | 4.8 | 0.00 | 0.00 | 0.00 | 47 | 1015.9 |
| 20260507163044 | 17 | 306 | 3.2 | 3.2 | 0.00 | 0.00 | 0.00 | 47 | 1016.1 |
| 20260507162544 | 17 | 231 | 3.2 | 4.8 | 0.00 | 0.00 | 0.00 | 50 | 1016.0 |
| 20260507162041 | 18 | 255 | 3.2 | 4.8 | 0.00 | 0.00 | 0.00 | 47 | 1016.0 |
| 20260507161539 | 18 | 86 | 6.4 | 11.3 | 0.00 | 0.00 | 0.00 | 47 | 1016.0 |
| 20260507161034 | 17 | 22 | 3.2 | 3.2 | 0.00 | 0.00 | 0.00 | 47 | 1016.2 |
| 20260507160530 | 17 | 248 | 4.8 | 4.8 | 0.00 | 0.00 | 0.00 | 48 | 1016.0 |
| 20260507160027 | 17 | 347 | 1.6 | 3.2 | 0.00 | 0.00 | 0.00 | 49 | 1016.1 |
| 20260507155522 | 17 | 64 | 1.6 | 3.2 | 0.00 | 0.00 | 0.00 | 51 | 1016.1 |
| 20260507155020 | 18 | 301 | 1.6 | 3.2 | 0.00 | 0.00 | 0.00 | 49 | 1016.0 |
| 20260507154516 | 17 | 335 | 1.6 | 1.6 | 0.00 | 0.00 | 0.00 | 50 | 1016.2 |
| 20260507154013 | 17 | 0 | 0.0 | 0.0 | 0.00 | 0.00 | 0.00 | 51 | 1016.2 |
| 20260507153510 | 17 | 175 | 3.2 | 4.8 | 0.00 | 0.00 | 0.00 | 49 | 1016.3 |
| 20260507153006 | 17 | 245 | 3.2 | 6.4 | 0.00 | 0.00 | 0.00 | 50 | 1016.3 |
| 20260507152502 | 17 | 315 | 1.6 | 1.6 | 0.00 | 0.00 | 0.00 | 51 | 1016.3 |
| 20260507151959 | 16 | 63 | 1.6 | 3.2 | 0.00 | 0.00 | 0.00 | 52 | 1016.4 |
| 20260507151455 | 16 | 280 | 3.2 | 3.2 | 0.00 | 0.00 | 0.00 | 53 | 1016.5 |
| 20260507150952 | 16 | 298 | 3.2 | 4.8 | 0.00 | 0.00 | 0.00 | 52 | 1016.7 |
| 20260507150449 | 16 | 294 | 1.6 | 3.2 | 0.00 | 0.00 | 0.00 | 52 | 1016.8 |
| 20260507145945 | 16 | 355 | 1.6 | 1.6 | 0.00 | 0.00 | 0.00 | 53 | 1016.8 |
| 20260507145441 | 16 | 48 | 1.6 | 3.2 | 0.00 | 0.00 | 0.00 | 53 | 1016.7 |
| 20260507144938 | 16 | 120 | 3.2 | 4.8 | 0.00 | 0.00 | 0.00 | 54 | 1016.5 |
| 20260507144435 | 15 | 104 | 3.2 | 4.8 | 0.00 | 0.00 | 0.00 | 54 | 1016.8 |
| 20260507143932 | 15 | 338 | 1.6 | 1.6 | 0.00 | 0.00 | 0.00 | 56 | 1016.7 |
| 20260507143430 | 15 | 333 | 1.6 | 1.6 | 0.00 | 0.00 | 0.00 | 56 | 1016.9 |
| 20260507142926 | 15 | 11 | 3.2 | 4.8 | 0.00 | 0.00 | 0.00 | 57 | 1016.9 |
| 20260507142422 | 14 | 89 | 1.6 | 1.6 | 0.00 | 0.00 | 0.00 | 58 | 1016.5 |
| 20260507141919 | 14 | 335 | 0.0 | 1.6 | 0.00 | 0.00 | 0.00 | 58 | 1016.7 |
| 20260507141415 | 14 | 129 | 4.8 | 12.9 | 0.00 | 0.00 | 0.00 | 59 | 1016.7 |
| 20260507140912 | 13 | 335 | 1.6 | 3.2 | 0.00 | 0.00 | 0.00 | 61 | 1016.8 |
| 20260507140408 | 13 | 227 | 1.6 | 1.6 | 0.00 | 0.00 | 0.00 | 61 | 1017.1 |
| 20260507135907 | 12 | 293 | 0.0 | 1.6 | 0.00 | 0.00 | 0.00 | 62 | 1017.0 |
| 20260507135403 | 12 | 90 | 1.6 | 1.6 | 0.00 | 0.00 | 0.00 | 64 | 1016.9 |
| 20260507134900 | 12 | 6 | 0.0 | 1.6 | 0.00 | 0.00 | 0.00 | 65 | 1017.1 |
| 20260507134356 | 12 | 100 | 1.6 | 1.6 | 0.00 | 0.00 | 0.00 | 66 | 1016.8 |
| 20260507133852 | 12 | 24 | 1.6 | 3.2 | 0.00 | 0.00 | 0.00 | 66 | 1016.8 |
| 20260507133348 | 11 | 7 | 0.0 | 1.6 | 0.00 | 0.00 | 0.00 | 67 | 1016.9 |
| 20260507132847 | 11 | 350 | 0.0 | 0.0 | 0.00 | 0.00 | 0.00 | 67 | 1017.0 |
| 20260507132343 | 11 | 241 | 1.6 | 1.6 | 0.00 | 0.00 | 0.00 | 67 | 1016.9 |
| 20260507131840 | 11 | 36 | 3.2 | 3.2 | 0.00 | 0.00 | 0.00 | 68 | 1017.0 |
| 20260507131337 | 11 | 304 | 1.6 | 1.6 | 0.00 | 0.00 | 0.00 | 69 | 1017.2 |
| 20260507130834 | 10 | 332 | 0.0 | 0.0 | 0.00 | 0.00 | 0.00 | 71 | 1017.1 |
| 20260507130331 | 10 | 357 | 0.0 | 0.0 | 0.00 | 0.00 | 0.00 | 71 | 1017.3 |
| 20260507125830 | 10 | 150 | 3.2 | 3.2 | 0.00 | 0.00 | 0.00 | 71 | 1017.2 |
| 20260507125327 | 10 | 341 | 0.0 | 0.0 | 0.00 | 0.00 | 0.00 | 72 | 1017.2 |
| 20260507124824 | 9 | 324 | 0.0 | 0.0 | 0.00 | 0.00 | 0.00 | 72 | 1017.2 |
| 20260507124320 | 9 | 357 | 0.0 | 0.0 | 0.00 | 0.00 | 0.00 | 73 | 1017.3 |
| 20260507123819 | 9 | 356 | 0.0 | 0.0 | 0.00 | 0.00 | 0.00 | 73 | 1017.2 |
| 20260507123316 | 8 | 344 | 0.0 | 0.0 | 0.00 | 0.00 | 0.00 | 72 | 1017.2 |
| 20260507122812 | 8 | 4 | 0.0 | 0.0 | 0.00 | 0.00 | 0.00 | 75 | 1017.2 |
| 20260507122308 | 8 | 351 | 0.0 | 0.0 | 0.00 | 0.00 | 0.00 | 75 | 1017.2 |
| 20260507121804 | 7 | 334 | 0.0 | 0.0 | 0.00 | 0.00 | 0.00 | 76 | 1017.1 |
| 20260507121259 | 7 | 341 | 0.0 | 0.0 | 0.00 | 0.00 | 0.00 | 76 | 1017.1 |
| 20260507120756 | 7 | 187 | 1.6 | 1.6 | 0.00 | 0.00 | 0.00 | 76 | 1017.3 |
| 20260507120253 | 7 | 344 | 0.0 | 0.0 | 0.00 | 0.00 | 0.00 | 76 | 1017.1 |
| 20260507115749 | 7 | 330 | 0.0 | 0.0 | 0.00 | 0.00 | 0.00 | 76 | 1017.3 |
| 20260507115245 | 7 | 338 | 0.0 | 0.0 | 0.00 | 0.00 | 0.00 | 77 | 1017.1 |
| 20260507114740 | 6 | 352 | 0.0 | 0.0 | 0.00 | 0.00 | 0.00 | 78 | 1017.2 |
| 20260507114238 | 6 | 349 | 0.0 | 0.0 | 0.00 | 0.00 | 0.00 | 79 | 1017.2 |
| 20260507113736 | 6 | 349 | 0.0 | 0.0 | 0.00 | 0.00 | 0.00 | 79 | 1016.9 |
| 20260507113232 | 6 | 342 | 0.0 | 0.0 | 0.00 | 0.00 | 0.00 | 79 | 1017.0 |
| 20260507112730 | 6 | 343 | 0.0 | 0.0 | 0.00 | 0.00 | 0.00 | 79 | 1017.0 |
| 20260507112227 | 6 | 0 | 0.0 | 0.0 | 0.00 | 0.00 | 0.00 | 79 | 1016.8 |
| 20260507111724 | 6 | 13 | 0.0 | 0.0 | 0.00 | 0.00 | 0.00 | 79 | 1016.8 |
| 20260507111221 | 6 | 13 | 0.0 | 0.0 | 0.00 | 0.00 | 0.00 | 78 | 1016.8 |
| 20260507110716 | 6 | 13 | 0.0 | 0.0 | 0.00 | 0.00 | 0.00 | 78 | 1016.8 |
| 20260507110213 | 6 | 354 | 0.0 | 0.0 | 0.00 | 0.00 | 0.00 | 78 | 1016.9 |
| 20260507105711 | 6 | 353 | 0.0 | 0.0 | 0.00 | 0.00 | 0.00 | 78 | 1016.9 |
| 20260507105206 | 6 | 354 | 0.0 | 0.0 | 0.00 | 0.00 | 0.00 | 77 | 1016.9 |
| 20260507104704 | 6 | 350 | 0.0 | 0.0 | 0.00 | 0.00 | 0.00 | 77 | 1016.8 |
| 20260507104200 | 6 | 349 | 0.0 | 0.0 | 0.00 | 0.00 | 0.00 | 77 | 1016.8 |
| 20260507103656 | 6 | 350 | 0.0 | 0.0 | 0.00 | 0.00 | 0.00 | 76 | 1016.9 |
| 20260507103153 | 6 | 349 | 0.0 | 0.0 | 0.00 | 0.00 | 0.00 | 76 | 1016.9 |
| 20260507102649 | 6 | 350 | 0.0 | 0.0 | 0.00 | 0.00 | 0.00 | 76 | 1017.0 |
| 20260507102146 | 6 | 350 | 0.0 | 0.0 | 0.00 | 0.00 | 0.00 | 75 | 1017.1 |
| 20260507101641 | 6 | 350 | 0.0 | 0.0 | 0.00 | 0.00 | 0.00 | 74 | 1016.9 |
| 20260507101137 | 6 | 350 | 0.0 | 0.0 | 0.00 | 0.00 | 0.00 | 74 | 1016.9 |
| 20260507100635 | 6 | 350 | 0.0 | 0.0 | 0.00 | 0.00 | 0.00 | 74 | 1016.9 |
| 20260507100133 | 6 | 350 | 0.0 | 0.0 | 0.00 | 0.00 | 0.00 | 73 | 1017.0 |
| 20260507095631 | 6 | 350 | 0.0 | 0.0 | 0.00 | 0.00 | 0.00 | 72 | 1017.1 |
| 20260507095127 | 6 | 350 | 0.0 | 0.0 | 0.00 | 0.00 | 0.00 | 72 | 1016.9 |
| 20260507094623 | 6 | 350 | 0.0 | 0.0 | 0.00 | 0.00 | 0.00 | 71 | 1017.1 |
| 20260507094120 | 6 | 350 | 0.0 | 0.0 | 0.00 | 0.00 | 0.00 | 71 | 1017.1 |
| 20260507093618 | 6 | 350 | 0.0 | 0.0 | 0.00 | 0.00 | 0.00 | 69 | 1017.3 |
| 20260507093117 | 6 | 350 | 0.0 | 0.0 | 0.00 | 0.00 | 0.00 | 70 | 1017.3 |
| 20260507092612 | 6 | 345 | 0.0 | 0.0 | 0.00 | 0.00 | 0.00 | 70 | 1017.3 |
| 20260507092109 | 6 | 355 | 0.0 | 0.0 | 0.00 | 0.00 | 0.00 | 70 | 1017.1 |
| 20260507091606 | 6 | 345 | 0.0 | 0.0 | 0.00 | 0.00 | 0.00 | 71 | 1017.1 |
| 20260507091102 | 6 | 132 | 3.2 | 3.2 | 0.00 | 0.00 | 0.00 | 72 | 1017.3 |
| 20260507090558 | 6 | 341 | 0.0 | 0.0 | 0.00 | 0.00 | 0.00 | 73 | 1017.4 |
| 20260507090055 | 6 | 357 | 0.0 | 0.0 | 0.00 | 0.00 | 0.00 | 73 | 1017.2 |
| 20260507085552 | 6 | 346 | 0.0 | 0.0 | 0.00 | 0.00 | 0.00 | 73 | 1017.3 |
| 20260507085049 | 6 | 346 | 0.0 | 0.0 | 0.00 | 0.00 | 0.00 | 72 | 1017.2 |
| 20260507084546 | 6 | 346 | 0.0 | 0.0 | 0.00 | 0.00 | 0.00 | 72 | 1017.3 |
| 20260507084043 | 6 | 346 | 0.0 | 0.0 | 0.00 | 0.00 | 0.00 | 73 | 1017.3 |
| 20260507083539 | 6 | 346 | 0.0 | 0.0 | 0.00 | 0.00 | 0.00 | 72 | 1017.3 |
| 20260507083036 | 6 | 346 | 0.0 | 0.0 | 0.00 | 0.00 | 0.00 | 72 | 1017.4 |
| 20260507082531 | 6 | 346 | 0.0 | 0.0 | 0.00 | 0.00 | 0.00 | 72 | 1017.4 |
| 20260507082028 | 6 | 346 | 0.0 | 0.0 | 0.00 | 0.00 | 0.00 | 72 | 1017.3 |
| 20260507081525 | 6 | 346 | 0.0 | 0.0 | 0.00 | 0.00 | 0.00 | 71 | 1017.2 |
| 20260507081022 | 6 | 346 | 0.0 | 0.0 | 0.00 | 0.00 | 0.00 | 70 | 1017.1 |
| 20260507080517 | 6 | 346 | 0.0 | 0.0 | 0.00 | 0.00 | 0.00 | 70 | 1017.2 |
| 20260507080014 | 6 | 346 | 0.0 | 0.0 | 0.00 | 0.00 | 0.00 | 69 | 1017.3 |
| 20260507075509 | 6 | 346 | 0.0 | 0.0 | 0.00 | 0.00 | 0.00 | 69 | 1017.2 |
| 20260507075006 | 6 | 346 | 0.0 | 0.0 | 0.00 | 0.00 | 0.00 | 68 | 1017.1 |
| 20260507074503 | 6 | 346 | 0.0 | 0.0 | 0.00 | 0.00 | 0.00 | 68 | 1017.4 |
| 20260507074001 | 7 | 346 | 0.0 | 0.0 | 0.00 | 0.00 | 0.00 | 68 | 1017.2 |
| 20260507073457 | 7 | 338 | 0.0 | 0.0 | 0.00 | 0.00 | 0.00 | 68 | 1017.3 |
| 20260507072954 | 7 | 338 | 0.0 | 0.0 | 0.00 | 0.00 | 0.00 | 67 | 1017.1 |
| 20260507072451 | 7 | 338 | 0.0 | 0.0 | 0.00 | 0.00 | 0.00 | 66 | 1017.4 |
| 20260507071948 | 7 | 338 | 0.0 | 0.0 | 0.00 | 0.00 | 0.00 | 66 | 1017.5 |
| 20260507071445 | 7 | 338 | 0.0 | 0.0 | 0.00 | 0.00 | 0.00 | 65 | 1017.6 |
| 20260507070942 | 7 | 338 | 0.0 | 0.0 | 0.00 | 0.00 | 0.00 | 65 | 1017.7 |
| 20260507070440 | 7 | 338 | 0.0 | 0.0 | 0.00 | 0.00 | 0.00 | 65 | 1017.4 |
| 20260507065936 | 7 | 338 | 0.0 | 0.0 | 0.00 | 0.00 | 0.00 | 65 | 1017.8 |
| 20260507065433 | 7 | 338 | 0.0 | 0.0 | 0.00 | 0.00 | 0.00 | 64 | 1017.8 |
| 20260507064930 | 8 | 338 | 0.0 | 0.0 | 0.00 | 0.00 | 0.00 | 64 | 1017.7 |
| 20260507064428 | 8 | 338 | 0.0 | 0.0 | 0.00 | 0.00 | 0.00 | 64 | 1018.0 |
| 20260507063926 | 8 | 338 | 0.0 | 0.0 | 0.00 | 0.00 | 0.00 | 64 | 1017.9 |
| 20260507063423 | 8 | 338 | 0.0 | 0.0 | 0.00 | 0.00 | 0.00 | 64 | 1017.9 |
| 20260507062920 | 8 | 338 | 0.0 | 0.0 | 0.00 | 0.00 | 0.00 | 64 | 1017.8 |
| 20260507062417 | 8 | 338 | 0.0 | 0.0 | 0.00 | 0.00 | 0.00 | 64 | 1017.9 |
| 20260507061914 | 8 | 338 | 0.0 | 0.0 | 0.00 | 0.00 | 0.00 | 64 | 1017.9 |
| 20260507061412 | 8 | 340 | 0.0 | 0.0 | 0.00 | 0.00 | 0.00 | 64 | 1017.8 |
| 20260507060910 | 8 | 340 | 0.0 | 0.0 | 0.00 | 0.00 | 0.00 | 63 | 1018.0 |
| 20260507060406 | 8 | 340 | 0.0 | 0.0 | 0.00 | 0.00 | 0.00 | 62 | 1017.9 |
| 20260507055903 | 8 | 340 | 0.0 | 0.0 | 0.00 | 0.00 | 0.00 | 62 | 1018.0 |
| 20260507055358 | 8 | 340 | 0.0 | 0.0 | 0.00 | 0.00 | 0.00 | 62 | 1017.8 |
| 20260507054856 | 8 | 359 | 0.0 | 0.0 | 0.00 | 0.00 | 0.00 | 62 | 1018.0 |
| 20260507054352 | 8 | 355 | 0.0 | 0.0 | 0.00 | 0.00 | 0.00 | 63 | 1017.9 |
| 20260507053849 | 8 | 323 | 0.0 | 0.0 | 0.00 | 0.00 | 0.00 | 64 | 1017.9 |
| 20260507053347 | 8 | 323 | 0.0 | 0.0 | 0.00 | 0.00 | 0.00 | 64 | 1018.0 |
| 20260507052845 | 8 | 323 | 0.0 | 0.0 | 0.00 | 0.00 | 0.00 | 65 | 1018.0 |
| 20260507052342 | 7 | 323 | 0.0 | 0.0 | 0.00 | 0.00 | 0.00 | 65 | 1017.9 |
| 20260507051839 | 7 | 323 | 0.0 | 0.0 | 0.00 | 0.00 | 0.00 | 65 | 1017.9 |
| 20260507051337 | 7 | 323 | 0.0 | 0.0 | 0.00 | 0.00 | 0.00 | 64 | 1018.2 |
| 20260507050833 | 7 | 323 | 0.0 | 0.0 | 0.00 | 0.00 | 0.00 | 65 | 1018.0 |
| 20260507050330 | 7 | 323 | 0.0 | 0.0 | 0.00 | 0.00 | 0.00 | 66 | 1017.9 |
| 20260507045827 | 7 | 323 | 0.0 | 0.0 | 0.00 | 0.03 | 0.03 | 65 | 1017.9 |
| 20260507045323 | 7 | 323 | 0.0 | 0.0 | 0.00 | 0.03 | 0.03 | 65 | 1018.0 |
| 20260507044821 | 8 | 323 | 0.0 | 0.0 | 0.00 | 0.03 | 0.03 | 64 | 1018.1 |
| 20260507044317 | 8 | 323 | 0.0 | 0.0 | 0.00 | 0.03 | 0.03 | 64 | 1018.0 |
| 20260507043813 | 8 | 323 | 0.0 | 0.0 | 0.00 | 0.03 | 0.03 | 63 | 1018.0 |
| 20260507043310 | 8 | 323 | 0.0 | 0.0 | 0.00 | 0.03 | 0.03 | 62 | 1017.8 |
| 20260507042806 | 8 | 323 | 0.0 | 0.0 | 0.00 | 0.03 | 0.03 | 61 | 1018.0 |
| 20260507042301 | 8 | 323 | 0.0 | 0.0 | 0.00 | 0.03 | 0.03 | 61 | 1017.9 |
| 20260507041759 | 8 | 323 | 0.0 | 0.0 | 0.00 | 0.03 | 0.03 | 60 | 1017.9 |
| 20260507041255 | 8 | 323 | 0.0 | 0.0 | 0.00 | 0.03 | 0.03 | 61 | 1017.8 |
| 20260507040753 | 8 | 323 | 0.0 | 0.0 | 0.00 | 0.03 | 0.03 | 60 | 1017.9 |
| 20260507040248 | 8 | 323 | 0.0 | 0.0 | 0.00 | 0.03 | 0.03 | 60 | 1018.4 |
| 20260507035744 | 8 | 323 | 0.0 | 0.0 | 0.00 | 0.03 | 0.03 | 60 | 1018.0 |
| 20260507035240 | 8 | 323 | 0.0 | 0.0 | 0.00 | 0.03 | 0.03 | 61 | 1018.2 |
| 20260507034738 | 8 | 323 | 0.0 | 0.0 | 0.00 | 0.03 | 0.03 | 61 | 1018.2 |
| 20260507034235 | 7 | 323 | 0.0 | 0.0 | 0.00 | 0.03 | 0.03 | 63 | 1018.2 |
| 20260507033733 | 7 | 323 | 0.0 | 0.0 | 0.00 | 0.03 | 0.03 | 60 | 1018.1 |
| 20260507033230 | 7 | 323 | 0.0 | 0.0 | 0.00 | 0.03 | 0.03 | 59 | 1018.2 |
| 20260507032728 | 7 | 323 | 0.0 | 0.0 | 0.00 | 0.03 | 0.03 | 57 | 1018.3 |
| 20260507032223 | 7 | 323 | 0.0 | 0.0 | 0.00 | 0.03 | 0.03 | 57 | 1018.0 |
| 20260507031720 | 7 | 323 | 0.0 | 0.0 | 0.00 | 0.03 | 0.03 | 56 | 1018.0 |
| 20260507031217 | 8 | 323 | 0.0 | 0.0 | 0.00 | 0.03 | 0.03 | 54 | 1018.1 |
| 20260507030713 | 8 | 323 | 0.0 | 0.0 | 0.00 | 0.03 | 0.03 | 54 | 1018.1 |
| 20260507030211 | 8 | 323 | 0.0 | 0.0 | 0.00 | 0.03 | 0.03 | 54 | 1018.2 |
| 20260507025708 | 8 | 323 | 0.0 | 0.0 | 0.00 | 0.03 | 0.03 | 56 | 1018.0 |
| 20260507025205 | 8 | 323 | 0.0 | 0.0 | 0.00 | 0.03 | 0.03 | 56 | 1018.0 |
| 20260507024703 | 8 | 323 | 0.0 | 0.0 | 0.00 | 0.03 | 0.03 | 55 | 1018.1 |
| 20260507024200 | 8 | 323 | 0.0 | 0.0 | 0.00 | 0.03 | 0.03 | 55 | 1018.0 |
| 20260507023655 | 8 | 323 | 0.0 | 0.0 | 0.00 | 0.03 | 0.03 | 55 | 1018.0 |
| 20260507023153 | 8 | 323 | 0.0 | 0.0 | 0.00 | 0.03 | 0.03 | 54 | 1018.0 |
| 20260507022650 | 8 | 323 | 0.0 | 0.0 | 0.00 | 0.03 | 0.03 | 52 | 1017.8 |
| 20260507022146 | 9 | 323 | 0.0 | 0.0 | 0.00 | 0.03 | 0.03 | 51 | 1017.8 |
| 20260507021642 | 9 | 323 | 0.0 | 0.0 | 0.00 | 0.03 | 0.03 | 51 | 1017.8 |
| 20260507021137 | 9 | 323 | 0.0 | 0.0 | 0.00 | 0.03 | 0.03 | 51 | 1017.7 |
| 20260507020636 | 10 | 323 | 0.0 | 0.0 | 0.00 | 0.03 | 0.03 | 50 | 1017.5 |
| 20260507020132 | 10 | 323 | 0.0 | 0.0 | 0.00 | 0.03 | 0.03 | 50 | 1017.7 |
| 20260507015631 | 10 | 323 | 0.0 | 0.0 | 0.00 | 0.03 | 0.03 | 48 | 1017.5 |
| 20260507015128 | 10 | 323 | 0.0 | 0.0 | 0.00 | 0.03 | 0.03 | 48 | 1017.4 |
| 20260507014624 | 10 | 323 | 0.0 | 0.0 | 0.00 | 0.03 | 0.03 | 46 | 1017.5 |
| 20260507014120 | 10 | 323 | 0.0 | 0.0 | 0.00 | 0.03 | 0.03 | 47 | 1017.6 |
| 20260507013617 | 11 | 323 | 0.0 | 0.0 | 0.00 | 0.03 | 0.03 | 46 | 1017.5 |
| 20260507013114 | 11 | 323 | 0.0 | 0.0 | 0.00 | 0.03 | 0.03 | 46 | 1017.5 |
| 20260507012612 | 11 | 323 | 0.0 | 0.0 | 0.00 | 0.03 | 0.03 | 45 | 1017.4 |
| 20260507012107 | 11 | 323 | 0.0 | 0.0 | 0.00 | 0.03 | 0.03 | 43 | 1017.3 |
| 20260507011605 | 12 | 323 | 0.0 | 0.0 | 0.00 | 0.03 | 0.03 | 43 | 1017.2 |
| 20260507011101 | 12 | 323 | 0.0 | 0.0 | 0.00 | 0.03 | 0.03 | 41 | 1017.4 |
| 20260507010556 | 12 | 326 | 0.0 | 0.0 | 0.00 | 0.03 | 0.03 | 39 | 1017.3 |
| 20260507010052 | 12 | 336 | 0.0 | 0.0 | 0.00 | 0.03 | 0.03 | 38 | 1017.3 |
| 20260507005550 | 13 | 347 | 0.0 | 0.0 | 0.00 | 0.03 | 0.03 | 38 | 1017.3 |
| 20260507005046 | 13 | 353 | 0.0 | 0.0 | 0.00 | 0.03 | 0.03 | 36 | 1017.2 |
| 20260507004543 | 13 | 329 | 0.0 | 0.0 | 0.00 | 0.03 | 0.03 | 37 | 1017.2 |
| 20260507004040 | 13 | 328 | 0.0 | 0.0 | 0.00 | 0.03 | 0.03 | 36 | 1017.2 |
| 20260507003536 | 13 | 335 | 0.0 | 0.0 | 0.00 | 0.03 | 0.03 | 36 | 1017.1 |
| 20260507003031 | 14 | 320 | 0.0 | 1.6 | 0.00 | 0.03 | 0.03 | 33 | 1017.0 |
| 20260507002528 | 14 | 319 | 0.0 | 1.6 | 0.00 | 0.03 | 0.03 | 34 | 1017.3 |
| 20260507002024 | 14 | 328 | 1.6 | 1.6 | 0.00 | 0.03 | 0.03 | 33 | 1017.3 |
| 20260507001521 | 14 | 359 | 0.0 | 0.0 | 0.00 | 0.03 | 0.03 | 34 | 1017.2 |
| 20260507001019 | 14 | 340 | 0.0 | 0.0 | 0.00 | 0.03 | 0.03 | 33 | 1017.3 |
| 20260507000514 | 14 | 306 | 1.6 | 1.6 | 0.00 | 0.03 | 0.03 | 33 | 1017.2 |
| 20260507000010 | 14 | 329 | 1.6 | 1.6 | 0.00 | 0.03 | 0.03 | 32 | 1017.2 |
| 20260506235508 | 15 | 324 | 1.6 | 1.6 | 0.00 | 0.03 | 0.03 | 33 | 1017.1 |
| 20260506235003 | 15 | 270 | 3.2 | 4.8 | 0.00 | 0.03 | 0.03 | 32 | 1017.2 |
| 20260506234501 | 15 | 353 | 1.6 | 1.6 | 0.00 | 0.03 | 0.03 | 31 | 1017.2 |
| 20260506233958 | 15 | 3 | 3.2 | 3.2 | 0.00 | 0.03 | 0.03 | 31 | 1017.2 |
| 20260506233454 | 15 | 326 | 1.6 | 3.2 | 0.00 | 0.03 | 0.03 | 31 | 1017.3 |
| 20260506232951 | 15 | 69 | 3.2 | 6.4 | 0.00 | 0.03 | 0.03 | 31 | 1017.3 |
| 20260506232447 | 15 | 332 | 4.8 | 6.4 | 0.00 | 0.03 | 0.03 | 30 | 1017.1 |
| 20260506231943 | 15 | 325 | 1.6 | 1.6 | 0.00 | 0.03 | 0.03 | 32 | 1017.1 |
| 20260506231441 | 15 | 297 | 3.2 | 3.2 | 0.00 | 0.03 | 0.03 | 31 | 1017.1 |
| 20260506230938 | 15 | 7 | 1.6 | 1.6 | 0.00 | 0.03 | 0.03 | 31 | 1017.0 |
| 20260506230434 | 15 | 299 | 4.8 | 4.8 | 0.00 | 0.03 | 0.03 | 33 | 1017.2 |
| 20260506225931 | 15 | 295 | 3.2 | 4.8 | 0.00 | 0.03 | 0.03 | 31 | 1017.0 |
| 20260506225428 | 15 | 4 | 0.0 | 0.0 | 0.00 | 0.03 | 0.03 | 33 | 1017.1 |
| 20260506224925 | 15 | 10 | 3.2 | 3.2 | 0.00 | 0.03 | 0.03 | 32 | 1017.1 |
| 20260506224423 | 15 | 353 | 1.6 | 3.2 | 0.00 | 0.03 | 0.03 | 31 | 1017.0 |
| 20260506223919 | 15 | 321 | 3.2 | 4.8 | 0.00 | 0.03 | 0.03 | 31 | 1017.1 |
| 20260506223414 | 15 | 337 | 3.2 | 3.2 | 0.00 | 0.03 | 0.03 | 32 | 1017.1 |
| 20260506222912 | 15 | 259 | 3.2 | 4.8 | 0.00 | 0.03 | 0.03 | 30 | 1017.1 |
| 20260506222408 | 15 | 58 | 3.2 | 4.8 | 0.00 | 0.03 | 0.03 | 30 | 1017.2 |
| 20260506221906 | 16 | 339 | 3.2 | 4.8 | 0.00 | 0.03 | 0.03 | 30 | 1017.1 |
| 20260506221402 | 16 | 275 | 8.0 | 9.7 | 0.00 | 0.03 | 0.03 | 28 | 1017.2 |
| 20260506220859 | 16 | 269 | 3.2 | 3.2 | 0.00 | 0.03 | 0.03 | 32 | 1017.1 |
| 20260506220355 | 16 | 328 | 0.0 | 0.0 | 0.00 | 0.03 | 0.03 | 31 | 1017.2 |
| 20260506215852 | 16 | 305 | 3.2 | 4.8 | 0.00 | 0.03 | 0.03 | 30 | 1017.4 |
| 20260506215347 | 16 | 45 | 4.8 | 6.4 | 0.00 | 0.03 | 0.03 | 32 | 1017.4 |
| 20260506214844 | 16 | 343 | 3.2 | 6.4 | 0.00 | 0.03 | 0.03 | 32 | 1017.3 |
| 20260506214341 | 16 | 303 | 3.2 | 4.8 | 0.00 | 0.03 | 0.03 | 31 | 1017.3 |
| 20260506213839 | 16 | 32 | 3.2 | 4.8 | 0.00 | 0.03 | 0.03 | 29 | 1017.4 |
| 20260506213336 | 16 | 4 | 3.2 | 4.8 | 0.00 | 0.03 | 0.03 | 30 | 1017.6 |
| 20260506212833 | 16 | 343 | 6.4 | 9.7 | 0.00 | 0.03 | 0.03 | 30 | 1017.6 |
| 20260506212329 | 16 | 313 | 1.6 | 3.2 | 0.00 | 0.03 | 0.03 | 32 | 1017.7 |
| 20260506211824 | 16 | 335 | 1.6 | 1.6 | 0.00 | 0.03 | 0.03 | 32 | 1017.8 |
| 20260506211320 | 16 | 277 | 4.8 | 9.7 | 0.00 | 0.03 | 0.03 | 31 | 1017.6 |
| 20260506210818 | 16 | 282 | 4.8 | 4.8 | 0.00 | 0.03 | 0.03 | 29 | 1017.8 |
| 20260506210314 | 16 | 3 | 6.4 | 9.7 | 0.00 | 0.03 | 0.03 | 30 | 1017.9 |